Regional Weather Roundup
Issued by NWS

Home | Current Version | Previous Version | Graphics & Text | Print | Product List | Glossary Off
Versions: 1 2 3 4 5 6 7 8 9 10 11 12 13 14 15 16 17 18 19 20 21 22 23 24 25 26 27 28 29 30 31 32 33 34 35 36 37 38 39 40 41 42 43 44 45 46 47 48 49 50

000
ASUS45 KTFX 111010
RWRMT
MONTANA REGIONAL WEATHER ROUNDUP
NATIONAL WEATHER SERVICE GREAT FALLS MT
300 AM MST SUN DEC 11 2016

NOTE: "FAIR" INDICATES FEW OR NO CLOUDS BELOW 12000 FEET WITH NO
SIGNIFICANT WEATHER AND/OR OBSTRUCTIONS TO VISIBILITY.

MTZ001>007-043-111100-
WEST OF THE DIVIDE

CITY           SKY/WX    TMP DP  RH WIND       PRES   REMARKS
KALISPELL      LGT SNOW  16  13  88 CALM      29.89F FOG
MISSOULA       CLOUDY    18  16  92 CALM      29.91S
BUTTE          CLOUDY     2  -2  83 S5        29.84R
MULLAN PASS    LGT SNOW  20  18  92 VRB6      29.75S FOG     WCI  12
ANACONDA         N/A     21   9  58 SE12G17   29.84S WCI   9
DEER LODGE       N/A     12   9  85 NW6       29.87R WCI   3
EUREKA           N/A     10   7  85 CALM      29.94S VSB 3/4
HAMILTON         N/A     27  16  63 S12       29.89R WCI  16
LIBBY            N/A     16  12  86 CALM      29.90S
PLAINS           N/A     19  13  77 CALM      29.93
RONAN            N/A     18  13  80 CALM      29.92S
$$

MTZ008-052>055-111100-
SOUTHWEST MONTANA

CITY           SKY/WX    TMP DP  RH WIND       PRES   REMARKS
BOZEMAN        CLOUDY     1  -4  79 NE3       29.89R
DILLON         FLURRIES  22   9  57 SW10      29.85R WCI  11
W YELLOWSTONE  CLOUDY    -8 -13  77 CALM      29.85R
ENNIS          PTCLDY    18   9  68 W6        29.90R WCI   9
THREE FORKS      N/A      7 -20  28 CALM      29.89R VSB 0
TWIN BRIDGES     N/A      3  -6  66 E3        29.86R
$$

MTZ009-010-012-014-046-048-049-054-111100-
EAST SLOPES AND CENTRAL MONTANA

CITY           SKY/WX    TMP DP  RH WIND       PRES   REMARKS
CUT BANK       CLOUDY   -11 -15  82 N5        29.82S
GREAT FALLS    CLOUDY     0  -4  83 CALM      29.84R
MALMSTROM AFB  CLOUDY    -2  -5  90 S1        29.87R
HELENA         CLOUDY    13   9  84 W7        29.86R WCI   3
CHOTEAU          N/A      1  -2  85 MISG      29.83S
$$

MTZ011-013-016-021-045-047-050-051-111100-
NORTH CENTRAL MONTANA

CITY           SKY/WX    TMP DP  RH WIND       PRES   REMARKS
HAVRE          CLOUDY   -14 -17  87 W6        29.97S WCI -28
LEWISTOWN      CLOUDY    -6 -10  83 E6        29.83R WCI -19
N BAR RANCH      N/A     16   9  73 NW15      29.79S WCI   1
CHINOOK          N/A     -9 -13  84 W5        29.99S
DENTON         MOCLDY    -4  -7  84 SE14      29.84S WCI -24
$$

MTZ017>020-022>027-061-062-111100-
NORTHEAST MONTANA

CITY           SKY/WX    TMP DP  RH WIND       PRES   REMARKS
GLASGOW        CLOUDY    -5  -8  87 W5        29.95R
JORDAN           N/A     -7 -12  79 CALM      29.92R
SIDNEY         FLURRIES   0  -5  79 CALM      29.94R
WOLF POINT     CLOUDY     1  -6  72 NW5       29.98R
PLENTYWOOD       N/A     -6  -9  84 NE7       29.94R WCI -20
POPLAR           N/A     -2  -8  78 NW3       29.97R
SCOBEY           N/A     -5 -17  56 CALM      29.91R
$$

MTZ028>42-056>058-111100-
SOUTHCENTRAL AND SOUTHEAST MONTANA

CITY           SKY/WX    TMP DP  RH WIND       PRES   REMARKS
BAKER          FLURRIES  10   6  84 NW13      29.84R WCI  -5
BILLINGS       FOG        4   1  88 N6        29.85R VSB 1/8 WCI  -7
LIVINGSTON     CLOUDY     9   4  80 W10       29.85R WCI  -5
MILES CITY     CLOUDY    11   4  73 NW12      29.92R WCI  -3
BIG TIMBER     CLEAR     21  10  63 SW15      29.84R WCI   8
EKALAKA          N/A     10   4  77 W10       29.80R WCI  -4
FORSYTH          N/A      7   3  85 W6        29.92R WCI  -3
LAUREL           N/A      4  -4  69 N1        29.84R VSB 0
ROUNDUP          N/A     -3 -11  69 CALM      29.80R
$$

REGIONAL REPORTS...DAKOTAS

CITY           SKY/WX    TMP DP  RH WIND       PRES   REMARKS
WILLISTON      FLURRIES   0  -6  76 NE5       29.96R
MINOT          LGT SNOW  -2  -7  79 E7        29.98S VSB 1   WCI -15
DICKINSON      CLOUDY     1  -4  79 SW8       29.83S WCI -13
BEACH          FLURRIES   7   3  85 W15       29.87R WCI -11
CROSBY         LGT SNOW  -4  -8  84 E9        30.01S WCI -20
TIOGA          LGT SNOW  -4  -8  84 E8        29.94S WCI -19
WATFORD CITY   FLURRIES   0  -8  71 E5        29.93S
BISMARCK       CLOUDY     0  -4  83 E7        29.97F WCI -13
GRAND FORKS    CLOUDY     1  -5  75 NE6       30.11F WCI -10
FARGO          LGT SNOW  10   5  80 NE7       30.03F VSB 1   WCI  -1
BUFFALO SD       N/A     11   7  84 NW9       29.75R WCI  -2
RAPID CITY     CLOUDY     1  -3  83 SW3       29.84R
$$

REGIONAL REPORTS...WYOMING/IDAHO/WASHINGTON

CITY           SKY/WX    TMP DP  RH WIND       PRES   REMARKS
GILLETTE       CLOUDY    10   9  95 W5        29.81R
SHERIDAN       CLOUDY    13   8  81 CALM      29.83R
BUFFALO WY     CLOUDY    24  16  71 E5        29.80S
CODY           FOG       11   8  88 S6        29.81R VSB 1/4 WCI   1
YELLOWSTONE LA   N/A      5   3  91 W5        29.80R
IDAHO FALLS    CLOUDY    29  26  89 SW12      29.90R WCI  19
SALMON         CLOUDY    10  10 100 CALM      29.97R
BOISE          FOG       30  29  96 CALM      30.06R VSB 1/4
SPOKANE        CLOUDY    28  25  88 SW8       29.89S WCI  20
$$

REGIONAL REPORTS...ALBERTA

CITY           SKY/WX    TMP DP  RH WIND       PRES   REMARKS
EDMONTON       CLOUDY    -9 -18  64 NW9G17    30.05R WCI -27
CALGARY        MOCLDY    -8 -15  71 N9        29.89R WCI -25
LETHBRIDGE     CLEAR    -17 -22  76 W5        29.94R
MEDICINE HAT   CLOUDY   -13 -17  84 SW7       30.00R FOG     WCI -29
WATERTON GATE    N/A     -2  -8  78 NE13        N/A  WCI -21
CARDSTON         N/A    -13 -17  84 W1          N/A
MILK RIVER       N/A    -20 -26  76 NW7         N/A  WCI -37
ONEFOUR          N/A     -8 -11  84 NW14        N/A  WCI -28
$$

REGIONAL REPORTS...SASKATCHEWAN

CITY           SKY/WX    TMP DP  RH WIND       PRES   REMARKS
SWIFT CURRENT  FLURRIES  -6  -9  84 SW10      29.88S WCI -23
REGINA         FLURRIES  -4 -11  71 S9        30.01R WCI -20
SASKATOON      CLOUDY    -6 -11  77 S5        30.03S
CYPRESS HILLS    N/A     -4  -9  77 NW5         N/A
VAL MARIE        N/A    -18 -26  69 N3          N/A
ROCKGLEN         N/A     -9 -13  84 SW1         N/A
ASSINIBOIA       N/A     -6 -13  71 NW18G26     N/A  WCI -29
$$



USA.gov is the U.S. government's official web portal to all federal, state and local government web resources and services.